Regional Weather Roundup
Issued by NWS Memphis, TN

Home | Current Version | Previous Version | Text Only | Print | Product List | Glossary On
Versions: 1 2 3 4 5 6 7 8 9 10 11 12 13 14 15 16 17 18 19 20 21 22 23 24 25 26 27 28 29 30 31 32 33 34 35 36 37 38 39 40 41 42 43 44 45 46 47 48 49 50
000
ASUS44 KMEG 270310
RWRMEG
MEMPHIS CWA HOURLY WEATHER ROUNDUP
NATIONAL WEATHER SERVICE MEMPHIS TN
1000 PM CDT SAT MAY 26 2018

...WEST TENNESSEE...

CITY           SKY/WX    TMP DP  RH WIND       PRES   REMARKS
MEMPHIS INTL   MOCLDY    74  69  85 CALM      29.87R
NWS MEMPHIS      N/A     74 N/A N/A MISG        N/A
JACKSON        FAIR      75  71  87 S3        29.88R
COVINGTON      CLEAR     73  72  94 CALM      29.87R
SOMERVILLE     CLEAR     73  70  88 CALM      29.87R
BOLIVAR        CLEAR     73  70  88 CALM      29.88R
LEXINGTON      CLEAR     72  70  94 CALM      29.89R
SELMER         CLEAR     73  72  94 CALM      29.89R
DYERSBURG      FAIR      76  72  87 CALM      29.87R
UNION CITY     MOCLDY    77  72  83 CALM      29.86R
PARIS          CLOUDY    73  70  88 SE3       29.89R
HUNTINGDON     PTCLDY    75  72  88 CALM      29.88R


...EASTERN ARKANSAS...

CITY           SKY/WX    TMP DP  RH WIND       PRES   REMARKS
JONESBORO      FAIR      78  75  90 S6        29.85R
WEST MEMPHIS   FAIR      77  73  87 S3        29.85R
BATESVILLE     CLEAR     74  72  93 CALM      29.87R
NEWPORT        FAIR      78  70  76 S5        29.86R
WALNUT RIDGE     N/A     79  75  87 SE6       29.86R
BLYTHEVILLE    FAIR      79  70  74 S3        29.86R
SEARCY         FAIR      75  75 100 CALM      29.87R
STUTTGART      FAIR      78  71  79 SE5       29.86R
PINE BLUFF     FAIR      74  69  85 SE5       29.86R


...NORTH MISSISSIPPI...

CITY           SKY/WX    TMP DP  RH WIND       PRES   REMARKS
TUPELO         MOCLDY    76  70  82 CALM      29.88R
BATESVILLE       N/A    N/A N/A N/A MISG        N/A
TUNICA           N/A     72  68  88 SE6       29.87R
CLARKSDALE       N/A     77  77 100 CALM      29.86R
CORINTH          N/A     75  72  88 CALM      29.89R
GREENWOOD      FAIR      73  68  84 SE5       29.87R
COLUMBUS       FAIR      74  74 100 SW3       29.89R
STARKVILLE     FAIR      70  70 100 CALM      29.90R
GOLDEN TRIANGL FAIR      75  71  87 CALM      29.90R


...SOUTHEAST MISSOURI...

CITY           SKY/WX    TMP DP  RH WIND       PRES   REMARKS
KENNETT        FAIR      79  72  78 SW5       29.84R
MALDEN         FAIR      81  72  74 SW3       29.86R
WEST PLAINS    CLEAR     73  69  87 S3        29.90R
POPLAR BLUFF   FAIR      76  74  93 CALM      29.85R
CAPE GIRARDEAU FAIR      76  70  82 S3        29.84R


...NORTHWEST ALABAMA...

CITY           SKY/WX    TMP DP  RH WIND       PRES   REMARKS
MUSCLE SHOALS  FAIR      73  71  93 E3        29.91R


...MIDDLE TENNESSEE...

CITY           SKY/WX    TMP DP  RH WIND       PRES   REMARKS
NASHVILLE      FAIR      73  70  90 CALM      29.91R
CLARKSVILLE    FAIR      72  67  84 SE3       29.89R
DICKSON        CLEAR     70  70 100 VRB7G13   29.91R FOG
COLUMBIA       CLEAR     72  72 100 CALM      29.90R
LEWISBURG      PTCLDY    70  68  94 CALM      29.92R


...WESTERN KENTUCKY...

CITY           SKY/WX    TMP DP  RH WIND       PRES   REMARKS
PADUCAH        FAIR      78  70  76 S5        29.85R
FORT CAMPBELL  FAIR      75  69  81 S6        29.89R


...CENTRAL ARKANSAS...

CITY           SKY/WX    TMP DP  RH WIND       PRES   REMARKS
LITTLE ROCK    PTCLDY    76  72  87 CALM      29.85R


SKY/WX REPORTED AS FAIR MEANS FEW OR NO CLOUDS BELOW
12 THOUSAND FEET.





USA.gov is the U.S. government's official web portal to all federal, state and local government web resources and services.